Location: Falniów
(50.3639°N, 19.9642°E)
Time: 22:57:29
(UTC+00:00)

Lacrosse 5 rocket - Pass Details

Date: 18 January 2026
Orbit: 401 x 481 km, 57.0° (Epoch: 16 February)

Event Time Altitude Azimuth Distance (km) Brightness Sun altitude
Exits shadow 03:48:08 25° 31° (NNE) 1,027 2.9 -25.5°
Drops below altitude 10° 03:50:27 10° 63° (ENE) 1,685 4.6 -25.1°
Sets 03:52:49 0° 75° (ENE) 2,566 5.9 -24.8°
